Location: Melbourne
(37.8666°S, 145.1333°E)
Time: 08:46:40
(UTC+10:00)

Daily predictions for brighter satellites

Satellite Brightness Start Highest point End
(mag) Time Altitude Azimuth Time Altitude Azimuth Time Altitude Azimuth
ALOS 3.7 18:07:42 10° SE 18:10:52 17° E 18:13:59 10° NE
IDEFIX/ARIANE 42P 4.4 18:06:15 10° S 18:11:02 35° WSW 18:15:45 10° NW
Landsat 4 3.7 18:07:59 10° NNE 18:11:42 69° ESE 18:15:29 10° S
Cosmos 1076 Rocket 4.1 18:11:11 10° NNE 18:15:10 37° E 18:19:10 10° SSE
Ariane Rocket 3.9 18:11:23 10° SE 18:15:46 28° E 18:20:06 10° NNE
GP-B 3.4 18:11:46 10° S 18:16:18 75° W 18:20:46 10° N
Cosmos 1980 3.8 18:16:07 10° SSW 18:21:44 54° ESE 18:27:17 10° NE
Cosmos 2219 4.2 18:16:24 10° NW 18:21:54 51° WSW 18:27:27 10° SSE
Meteor 2-10 4.2 18:16:57 10° S 18:22:29 88° E 18:28:07 10° N
CENTAUR R/B 3.8 18:19:13 10° NW 18:27:01 50° SW 18:33:57 10° SSE
Cosmos 1726 2.9 18:23:21 10° SSW 18:27:06 59° W 18:30:49 10° N
CZ-4 R/B 2.1 18:23:58 10° SSE 18:27:30 31° E 18:31:01 10° NNE
Cosmos 2082 3.8 18:22:17 10° N 18:27:46 54° ENE 18:33:17 10° SSE
YAOGAN 1 3.7 18:24:18 10° SE 18:27:52 24° E 18:31:22 10° NNE
Cosmos 2184 Rocket 4.1 18:22:05 10° S 18:28:23 57° E 18:34:32 10° NNE
Cosmos 2333 Rocket 2.4 18:22:52 10° SSW 18:28:42 81° WNW 18:34:26 10° NNE
ATLAS CENTAUR R/B 4.1 18:28:29 10° WSW 18:31:36 22° WNW 18:34:35 10° NNW
COSMOS 2428 4.2 18:28:25 10° SW 18:33:49 42° WNW 18:39:10 10° N
CZ-2C R/B 4.5 18:29:33 10° S 18:34:03 31° WSW 18:38:34 10° NW
Cosmos 2084 3.6 18:30:56 10° NNW 18:35:13 64° ENE 18:39:49 10° SE
Cosmos 972 4.5 18:33:34 10° N 18:38:24 59° ENE 18:43:37 10° SSE
Cosmos 1626 2.3 18:36:36 10° N 18:40:13 50° E 18:43:56 10° SSE
COSMOS 2455 3.4 18:36:02 10° N 18:41:27 36° ENE 18:46:55 10° SE
Cosmos 2227 Rocket 2.3 18:37:10 10° NNW 18:42:51 84° WSW 18:48:37 10° SSE
Cosmos 1703 4.1 18:40:57 10° NNE 18:44:24 29° E 18:47:51 10° SSE
Cosmos 2297 Rocket 2.2 18:40:26 10° NNW 18:46:05 90° WSW 18:51:50 10° SSE
Cosmos 1340 2.7 18:44:01 10° S 18:47:50 56° E 18:51:35 10° NNE
Cosmos 2237 Rocket 2.2 18:43:59 10° SSW 18:49:44 86° ESE 18:55:23 10° NNE
Cosmos 2219 Rocket 3.5 18:44:44 10° SW 18:50:09 45° WNW 18:55:31 10° N
Thor Agena Rocket 3.6 18:45:01 10° NNE 18:50:17 68° ESE 18:55:36 10° S
SL-14 R/B 4.3 18:47:45 10° NNW 18:51:30 47° W 18:55:20 10° S
CSL-04 Debris 4.1 18:46:06 10° SSE 18:51:38 74° ENE 18:57:04 10° N
Cosmos 1766 Rocket 3.6 18:51:37 10° N 18:55:57 57° E 19:00:22 10° SSE
CORIOLIS 4.2 18:51:05 10° SSE 18:56:38 87° ENE 19:02:07 10° NNW
GEOS 3 Rocket 4.4 18:53:01 10° NNE 18:57:59 53° WNW 19:02:56 10° SW
Cosmos 1437 4.3 18:57:10 10° SSW 19:00:12 39° W 19:03:12 10° NNW
Delta 2 Rocket 3.4 19:01:04 10° WNW 19:04:49 63° N 19:06:33 32° ENE
Cosmos 2074 Rocket 4.3 18:58:31 10° SSW 19:04:50 71° W 19:11:06 10° N
Okean 3 Rocket 4.4 19:04:38 10° NNW 19:08:58 54° W 19:13:22 10° S
Cosmos 1371 Rocket 4.0 19:05:40 10° S 19:10:50 58° ESE 19:15:47 11° NNE
Cosmos 1610 Rocket 4.4 19:05:13 10° S 19:11:33 86° E 19:17:43 10° N
CZ-4C R/B 2.0 19:08:25 10° SSW 19:14:01 61° SE 19:16:38 28° NE
Gbstr 26 Del rocket 4.2 19:09:16 10° SW 19:14:37 46° SSE 19:17:17 31° E
Cosmos 2344 4.4 19:01:49 10° SW 19:14:42 88° WNW 19:23:53 10° NNE
Cosmos 2228 Rocket 4.3 19:17:06 10° SSE 19:19:40 26° SE 19:19:40 26° SE
CSL-04 Rocket 4.4 19:18:02 10° S 19:23:14 52° WSW 19:28:23 10° NNW
Meteor 2-21 Rocket 4.3 19:18:21 10° S 19:24:30 76° E 19:30:34 10° NNE
SAR-Lupe-3 4.4 19:25:41 66° NE 19:26:03 74° ESE 19:29:43 10° S
Cosmos 2181 Rocket 4.0 19:24:43 10° N 19:30:59 61° E 19:37:12 10° SSE
Cosmos 2056 Rocket 3.4 19:27:03 10° SSW 19:32:25 72° ESE 19:35:09 30° NNE
SL-16 R/B 2.1 19:32:46 10° SSW 19:38:33 87° ESE 19:41:48 27° NNE
Cosmos 2285 Rocket 4.1 19:33:02 10° N 19:39:04 51° ENE 19:40:31 43° ESE
Cosmos 2227 4.5 19:39:11 10° N 19:43:52 48° NE 19:43:52 48° NE
Cosmos 2058 3.0 19:40:36 10° N 19:44:49 77° W 19:47:25 23° S
Cosmos 1328 Rocket 3.5 19:41:33 10° S 19:45:59 84° W 19:46:29 69° N
SPOT 3 Rocket 3.8 19:47:45 51° NNE 19:47:45 51° NNE 19:51:51 10° N
Cosmos 1455 2.7 19:43:25 10° SSW 19:46:36 55° SW 19:46:36 55° SW
ALOS 3.5 19:43:59 10° S 19:48:28 43° WSW 19:52:54 10° NW
Cosmos 1624 Rocket 4.1 19:44:38 10° SSW 19:49:59 74° WNW 19:52:42 29° N
MOS 1 4.2 19:45:03 10° SSE 19:50:51 86° ENE 19:56:35 10° NNW
Atlas Centaur 2 4.0 19:52:29 10° NNW 19:52:53 11° N 19:52:53 11° N
H-2A R/B 3.4 19:46:45 10° W 20:01:08 35° NNW 20:02:30 30° N
CZ-4 R/B 4.2 19:59:43 10° SSW 20:02:16 17° WSW 20:04:50 10° WNW
Meteor 2-8 Rocket 4.4 19:56:58 10° N 20:03:10 88° WSW 20:09:25 10° S
Cosmos 2151 4.2 20:07:31 10° NNW 20:11:06 41° W 20:11:06 41° W
COSMOS 2455 4.3 20:21:56 10° WNW 20:27:21 34° SW 20:31:05 18° S
